This demonstration page uses our WeatherBlox Daily Observations layout. Learn more.

Left ArrowRight Arrow

Hourly Observations for November 4, 2018

Temp ( °F °C ) Dew Point ( °F °C ) Humidity (%) Winds ( mph kmh ) Pressure ( in mb ) Visibility ( mi km ) Precip ( " mm )
12:52 am 00:52 Cloudy with Drizzle 43 6.1 40 4.4 89 89 N 13 20 29.93 1014 3 4 0.01 0.25
1:52 am 01:52 Cloudy with Light Rain 43 6.1 41 5 93 93 N 13 20 29.92 1013 2 3 0.00 0.03
1:52 am 01:52 Cloudy with Mist and Fog 43 6.1 40 4.4 89 89 NNW 13 20 29.91 1013 3 5 0.00 0.03
2:52 am 02:52 Cloudy with Mist and Fog 42 5.6 40 4.4 92 92 NNW 13 20 29.92 1013 3 5 0.00 0.00
3:01 am 03:01 Cloudy with Mist and Fog 42 5.6 40 4.4 92 92 NNW 16 26 29.94 1014 3 5 0.00 0.00
3:52 am 03:52 Cloudy with Mist and Fog 42 5.6 40 4.4 92 92 NNW 14 22 29.91 1013 2 3 0.00 0.00
4:52 am 04:52 Cloudy with Mist and Fog 41 5 39 3.9 93 93 NNW 18 30 29.91 1013 2 3 0.00 0.00
5:52 am 05:52 Cloudy with Mist and Fog 42 5.6 40 4.4 92 92 NNW 20 31 29.90 1013 2 3 0.00 0.00
6:41 am 06:41 Cloudy with Mist and Fog 42 5.6 39 3.9 89 89 NNW 17 28 29.91 1013 4 6 0.00 0.00
6:52 am 06:52 Cloudy with Mist and Fog 42 5.6 39 3.9 89 89 NNW 15 24 29.90 1012 4 6 0.00 0.00
7:52 am 07:52 Cloudy with Mist and Fog 41 5 38 3.3 89 89 NNW 16 26 29.91 1013 5 8 0.00 0.00
8:52 am 08:52 Cloudy with Mist and Fog 41 5 38 3.3 89 89 NNW 14 22 29.91 1013 6 10 0.00 0.00
9:14 am 09:14 Cloudy 42 5.6 38 3.3 85 85 NNW 14 22 29.91 1013 10 16 0.00 0.00
9:52 am 09:52 Cloudy 43 6.1 38 3.3 82 82 NNW 17 28 29.90 1012 10 16 0.00 0.00
10:52 am 10:52 Cloudy 43 6.1 37 2.8 80 80 NNW 14 22 29.90 1012 10 16 0.00 0.00
11:52 am 11:52 Cloudy 44 6.7 38 3.3 79 79 NW 10 17 29.88 1012 10 16 0.00 0.00
12:52 pm 12:52 Cloudy 45 7.2 37 2.8 74 74 NW 13 20 29.85 1011 10 16 0.00 0.00
1:52 pm 13:52 Cloudy 45 7.2 38 3.3 77 77 WNW 10 17 29.85 1011 10 16 0.00 0.00
2:37 pm 14:37 Cloudy 46 7.8 38 3.3 73 73 WNW 9 15 29.83 1010 10 16 0.00 0.00
2:52 pm 14:52 Cloudy 46 7.8 37 2.8 71 71 WNW 10 17 29.84 1011 10 16 0.00 0.00
3:09 pm 15:09 Cloudy with Light Rain 45 7.2 39 3.9 80 80 W 8 13 29.85 1011 10 16 0.00 0.03
3:52 pm 15:52 Mostly Cloudy 45 7.2 39 3.9 80 80 WNW 9 15 29.84 1010 10 16 0.00 0.03
4:52 pm 16:52 Cloudy 45 7.2 38 3.3 77 77 W 9 15 29.83 1010 10 16 0.00 0.00
5:52 pm 17:52 Cloudy 45 7.2 37 2.8 74 74 W 12 19 29.83 1010 10 16 0.00 0.00
6:52 pm 18:52 Cloudy 45 7.2 35 1.7 68 68 WSW 6 9 29.83 1010 10 16 0.00 0.00
7:52 pm 19:52 Cloudy 45 7.2 35 1.7 68 68 WSW 6 9 29.84 1010 10 16 0.00 0.00
8:52 pm 20:52 Cloudy 44 6.7 34 1.1 68 68 SSW 7 11 29.84 1011 10 16 0.00 0.00
9:52 pm 21:52 Mostly Cloudy 41 5 34 1.1 76 76 S 6 9 29.84 1011 10 16 0.00 0.00
10:52 pm 22:52 Mostly Cloudy 38 3.3 34 1.1 86 86 SSE 8 13 29.84 1010 10 16 0.00 0.00
11:52 pm 23:52 Mostly Cloudy 39 3.9 34 1.1 82 82 SSE 7 11 29.81 1010 10 16 0.00 0.00

Powered by AerisWeather